Time,TemperatureF,DewpointF,PressureIn,WindDirection,WindDirectionDegrees,WindSpeedMPH,WindSpeedGustMPH,Humidity,HourlyPrecipIn,Conditions,Clouds,dailyrainin,SoftwareType,DateUTC
2013-09-17 00:01:00,55.9,47.4,30.16,NE,44,5.0,9.0,73,0.00,,---,0.00,VWS V14.00,2013-09-17 04:01:00,
2013-09-17 00:02:00,55.8,47.3,30.17,NNW,345,7.0,9.0,73,0.00,,---,0.00,VWS V14.00,2013-09-17 04:02:00,
2013-09-17 00:04:00,55.7,47.2,30.17,NNE,27,3.0,7.0,73,0.00,,---,0.00,VWS V14.00,2013-09-17 04:04:00,
2013-09-17 00:09:00,55.5,47.4,30.17,NNE,25,8.0,9.0,74,0.00,,---,0.00,VWS V14.00,2013-09-17 04:09:00,
2013-09-17 00:14:00,55.3,46.8,30.17,ENE,63,5.0,9.0,73,0.00,,---,0.00,VWS V14.00,2013-09-17 04:14:00,
2013-09-17 00:19:00,55.1,47.0,30.18,NNE,20,2.0,3.0,74,0.00,,---,0.00,VWS V14.00,2013-09-17 04:19:00,
2013-09-17 00:25:00,54.9,46.8,30.18,NNE,15,6.0,7.0,74,0.00,,---,0.00,VWS V14.00,2013-09-17 04:25:00,
2013-09-17 00:30:00,54.8,46.3,30.18,NNE,27,6.0,8.0,73,0.00,,---,0.00,VWS V14.00,2013-09-17 04:30:00,
2013-09-17 00:35:00,54.7,45.9,30.18,NE,34,5.0,10.0,72,0.00,,---,0.00,VWS V14.00,2013-09-17 04:35:00,
2013-09-17 00:40:00,54.5,45.3,30.18,NNW,334,6.0,12.0,71,0.00,,---,0.00,VWS V14.00,2013-09-17 04:40:00,
2013-09-17 00:45:00,54.4,45.2,30.18,North,11,8.0,10.0,71,0.00,,---,0.00,VWS V14.00,2013-09-17 04:45:00,
2013-09-17 00:50:00,54.2,44.6,30.18,NNW,345,4.0,8.0,70,0.00,,---,0.00,VWS V14.00,2013-09-17 04:50:00,
2013-09-17 00:55:00,54.0,44.1,30.19,NE,34,8.0,9.0,69,0.00,,---,0.00,VWS V14.00,2013-09-17 04:55:00,
2013-09-17 01:00:00,53.8,43.5,30.19,NNW,335,4.0,9.0,68,0.00,,---,0.00,VWS V14.00,2013-09-17 05:00:00,
2013-09-17 01:06:00,53.7,42.6,30.19,NNE,23,5.0,11.0,66,0.00,,---,0.00,VWS V14.00,2013-09-17 05:06:00,
2013-09-17 01:11:00,53.5,42.4,30.19,NNW,345,3.0,9.0,66,0.00,,---,0.00,VWS V14.00,2013-09-17 05:11:00,
2013-09-17 01:16:00,53.4,41.9,30.19,NE,40,9.0,11.0,65,0.00,,---,0.00,VWS V14.00,2013-09-17 05:16:00,
2013-09-17 01:21:00,53.3,41.8,30.19,North,6,8.0,12.0,65,0.00,,---,0.00,VWS V14.00,2013-09-17 05:21:00,
2013-09-17 01:26:00,53.2,41.8,30.20,NNE,27,3.0,11.0,65,0.00,,---,0.00,VWS V14.00,2013-09-17 05:26:00,
2013-09-17 01:31:00,53.0,41.6,30.20,NE,40,5.0,10.0,65,0.00,,---,0.00,VWS V14.00,2013-09-17 05:31:00,
2013-09-17 01:36:00,52.9,41.5,30.20,North,353,3.0,12.0,65,0.00,,---,0.00,VWS V14.00,2013-09-17 05:36:00,
2013-09-17 01:41:00,52.6,41.6,30.20,NNE,27,10.0,15.0,66,0.00,,---,0.00,VWS V14.00,2013-09-17 05:41:00,
2013-09-17 01:46:00,52.5,41.5,30.20,NE,34,8.0,11.0,66,0.00,,---,0.00,VWS V14.00,2013-09-17 05:46:00,
2013-09-17 01:52:00,52.3,41.3,30.20,NNE,29,6.0,10.0,66,0.00,,---,0.00,VWS V14.00,2013-09-17 05:52:00,
2013-09-17 01:57:00,52.2,41.2,30.21,North,355,4.0,13.0,66,0.00,,---,0.00,VWS V14.00,2013-09-17 05:57:00,
2013-09-17 02:02:00,52.0,41.0,30.21,NW,323,3.0,10.0,66,0.00,,---,0.00,VWS V14.00,2013-09-17 06:02:00,
2013-09-17 02:07:00,51.8,41.2,30.21,NNE,16,8.0,8.0,67,0.00,,---,0.00,VWS V14.00,2013-09-17 06:07:00,
2013-09-17 02:12:00,51.8,40.8,30.21,NNW,345,9.0,13.0,66,0.00,,---,0.00,VWS V14.00,2013-09-17 06:12:00,
2013-09-17 02:17:00,51.6,40.6,30.21,NE,39,6.0,8.0,66,0.00,,---,0.00,VWS V14.00,2013-09-17 06:17:00,
2013-09-17 02:22:00,51.5,40.9,30.22,NNE,32,3.0,7.0,67,0.00,,---,0.00,VWS V14.00,2013-09-17 06:22:00,
2013-09-17 02:27:00,51.2,40.6,30.22,NE,42,4.0,7.0,67,0.00,,---,0.00,VWS V14.00,2013-09-17 06:27:00,
2013-09-17 02:32:00,51.1,40.5,30.22,NNE,13,5.0,7.0,67,0.00,,---,0.00,VWS V14.00,2013-09-17 06:32:00,
2013-09-17 02:38:00,50.9,40.7,30.22,NNW,348,3.0,7.0,68,0.00,,---,0.00,VWS V14.00,2013-09-17 06:38:00,
2013-09-17 02:43:00,50.8,40.6,30.22,NNE,27,4.0,8.0,68,0.00,,---,0.00,VWS V14.00,2013-09-17 06:43:00,
2013-09-17 02:48:00,50.6,40.1,30.22,NNE,23,4.0,8.0,67,0.00,,---,0.00,VWS V14.00,2013-09-17 06:48:00,
2013-09-17 02:53:00,50.6,39.7,30.22,NE,41,10.0,12.0,66,0.00,,---,0.00,VWS V14.00,2013-09-17 06:53:00,
2013-09-17 02:58:00,50.6,39.3,30.23,NE,44,6.0,15.0,65,0.00,,---,0.00,VWS V14.00,2013-09-17 06:58:00,
2013-09-17 03:03:00,50.8,38.7,30.23,NNW,333,6.0,16.0,63,0.00,,---,0.00,VWS V14.00,2013-09-17 07:03:00,
2013-09-17 03:08:00,50.8,38.3,30.23,NNE,30,5.0,13.0,62,0.00,,---,0.00,VWS V14.00,2013-09-17 07:08:00,
2013-09-17 03:13:00,50.7,38.2,30.22,NE,39,8.0,15.0,62,0.00,,---,0.00,VWS V14.00,2013-09-17 07:13:00,
2013-09-17 03:18:00,50.6,38.1,30.23,NE,37,7.0,12.0,62,0.00,,---,0.00,VWS V14.00,2013-09-17 07:18:00,
2013-09-17 03:23:00,50.5,38.4,30.23,NNE,30,4.0,7.0,63,0.00,,---,0.00,VWS V14.00,2013-09-17 07:23:00,
2013-09-17 03:28:00,50.4,38.3,30.23,NE,42,7.0,10.0,63,0.00,,---,0.00,VWS V14.00,2013-09-17 07:28:00,
2013-09-17 03:33:00,50.3,38.2,30.23,ENE,75,4.0,10.0,63,0.00,,---,0.00,VWS V14.00,2013-09-17 07:33:00,
2013-09-17 03:38:00,50.1,38.4,30.23,NNE,32,4.0,7.0,64,0.00,,---,0.00,VWS V14.00,2013-09-17 07:38:00,
2013-09-17 03:43:00,50.0,38.3,30.23,North,349,4.0,8.0,64,0.00,,---,0.00,VWS V14.00,2013-09-17 07:43:00,
2013-09-17 03:48:00,50.0,38.7,30.23,NNE,32,4.0,11.0,65,0.00,,---,0.00,VWS V14.00,2013-09-17 07:48:00,
2013-09-17 03:53:00,49.9,38.6,30.23,NE,41,4.0,7.0,65,0.00,,---,0.00,VWS V14.00,2013-09-17 07:53:00,
2013-09-17 03:58:00,49.7,38.4,30.23,NNE,17,5.0,7.0,65,0.00,,---,0.00,VWS V14.00,2013-09-17 07:58:00,
2013-09-17 04:03:00,49.6,38.7,30.23,NNE,33,4.0,6.0,66,0.00,,---,0.00,VWS V14.00,2013-09-17 08:03:00,
2013-09-17 04:08:00,49.4,38.5,30.24,North,5,3.0,6.0,66,0.00,,---,0.00,VWS V14.00,2013-09-17 08:08:00,
2013-09-17 04:13:00,49.2,38.7,30.23,North,349,5.0,6.0,67,0.00,,---,0.00,VWS V14.00,2013-09-17 08:13:00,
2013-09-17 04:18:00,48.9,38.8,30.23,NNW,343,4.0,5.0,68,0.00,,---,0.00,VWS V14.00,2013-09-17 08:18:00,
2013-09-17 04:23:00,48.7,38.6,30.23,NNE,25,6.0,7.0,68,0.00,,---,0.00,VWS V14.00,2013-09-17 08:23:00,
2013-09-17 04:28:00,48.6,38.9,30.24,NNE,23,4.0,4.0,69,0.00,,---,0.00,VWS V14.00,2013-09-17 08:28:00,
2013-09-17 04:33:00,47.6,38.0,30.24,NNE,25,6.0,6.0,69,0.00,,---,0.00,VWS V14.00,2013-09-17 08:33:00,
2013-09-17 04:38:00,47.6,38.0,30.24,NNE,25,6.0,6.0,69,0.00,,---,0.00,VWS V14.00,2013-09-17 08:38:00,
2013-09-17 04:43:00,47.6,38.0,30.24,NNE,25,6.0,6.0,69,0.00,,---,0.00,VWS V14.00,2013-09-17 08:43:00,
2013-09-17 04:48:00,47.6,38.0,30.24,NNE,25,6.0,6.0,69,0.00,,---,0.00,VWS V14.00,2013-09-17 08:48:00,
2013-09-17 04:53:00,47.6,38.0,30.24,NNE,25,6.0,6.0,69,0.00,,---,0.00,VWS V14.00,2013-09-17 08:53:00,
2013-09-17 04:58:00,47.6,38.0,30.24,NNE,25,6.0,6.0,69,0.00,,---,0.00,VWS V14.00,2013-09-17 08:58:00,
2013-09-17 05:03:00,47.6,38.0,30.24,NNE,25,6.0,6.0,69,0.00,,---,0.00,VWS V14.00,2013-09-17 09:03:00,
2013-09-17 05:08:00,47.6,38.0,30.24,NNE,25,6.0,6.0,69,0.00,,---,0.00,VWS V14.00,2013-09-17 09:08:00,
2013-09-17 05:13:00,47.6,38.0,30.25,NNE,25,6.0,6.0,69,0.00,,---,0.00,VWS V14.00,2013-09-17 09:13:00,
2013-09-17 05:19:00,47.6,38.0,30.25,NNE,25,6.0,6.0,69,0.00,,---,0.00,VWS V14.00,2013-09-17 09:19:00,
2013-09-17 05:24:00,47.6,38.0,30.25,NNE,25,6.0,6.0,69,0.00,,---,0.00,VWS V14.00,2013-09-17 09:24:00,
2013-09-17 05:29:00,47.6,38.0,30.25,NNE,25,6.0,6.0,69,0.00,,---,0.00,VWS V14.00,2013-09-17 09:29:00,
2013-09-17 05:34:00,47.6,38.0,30.25,NNE,25,6.0,6.0,69,0.00,,---,0.00,VWS V14.00,2013-09-17 09:34:00,
2013-09-17 05:39:00,47.6,38.0,30.25,NNE,25,6.0,6.0,69,0.00,,---,0.00,VWS V14.00,2013-09-17 09:39:00,
2013-09-17 05:44:00,47.6,38.0,30.26,NNE,25,6.0,6.0,69,0.00,,---,0.00,VWS V14.00,2013-09-17 09:44:00,
2013-09-17 05:49:00,47.6,38.0,30.26,NNE,25,6.0,6.0,69,0.00,,---,0.00,VWS V14.00,2013-09-17 09:49:00,
2013-09-17 05:54:00,47.6,38.0,30.27,NNE,25,6.0,6.0,69,0.00,,---,0.00,VWS V14.00,2013-09-17 09:54:00,
2013-09-17 05:59:00,47.6,38.0,30.27,NNE,25,6.0,6.0,69,0.00,,---,0.00,VWS V14.00,2013-09-17 09:59:00,
2013-09-17 06:04:00,47.6,38.0,30.27,NNE,25,6.0,6.0,69,0.00,,---,0.00,VWS V14.00,2013-09-17 10:04:00,
2013-09-17 06:09:00,47.6,38.0,30.27,NNE,25,6.0,6.0,69,0.00,,---,0.00,VWS V14.00,2013-09-17 10:09:00,
2013-09-17 06:14:00,47.6,38.0,30.28,NNE,25,6.0,6.0,69,0.00,,---,0.00,VWS V14.00,2013-09-17 10:14:00,
2013-09-17 06:19:00,47.6,38.0,30.28,NNE,25,6.0,6.0,69,0.00,,---,0.00,VWS V14.00,2013-09-17 10:19:00,
2013-09-17 06:24:00,47.6,38.0,30.28,NNE,25,6.0,6.0,69,0.00,,---,0.00,VWS V14.00,2013-09-17 10:24:00,
2013-09-17 06:29:00,47.6,38.0,30.29,NNE,25,6.0,6.0,69,0.00,,---,0.00,VWS V14.00,2013-09-17 10:29:00,
2013-09-17 06:35:00,47.6,38.0,30.29,NNE,25,6.0,6.0,69,0.00,,---,0.00,VWS V14.00,2013-09-17 10:35:00,
2013-09-17 06:40:00,47.6,38.0,30.29,NNE,25,6.0,6.0,69,0.00,,---,0.00,VWS V14.00,2013-09-17 10:40:00,
2013-09-17 06:45:00,47.6,38.0,30.29,NNE,25,6.0,6.0,69,0.00,,---,0.00,VWS V14.00,2013-09-17 10:45:00,
2013-09-17 06:50:00,47.6,38.0,30.30,NNE,25,6.0,6.0,69,0.00,,---,0.00,VWS V14.00,2013-09-17 10:50:00,
2013-09-17 06:55:00,47.6,38.0,30.30,NNE,25,6.0,6.0,69,0.00,,---,0.00,VWS V14.00,2013-09-17 10:55:00,
2013-09-17 07:00:00,47.6,38.0,30.30,NNE,25,6.0,6.0,69,0.00,,---,0.00,VWS V14.00,2013-09-17 11:00:00,
2013-09-17 07:05:00,47.1,39.9,30.30,North,360,3.0,6.0,76,0.00,,---,0.00,VWS V14.00,2013-09-17 11:05:00,
2013-09-17 07:10:00,47.4,40.2,30.30,NE,38,1.0,3.0,76,0.00,,---,0.00,VWS V14.00,2013-09-17 11:10:00,
2013-09-17 07:15:00,47.5,40.0,30.30,North,10,2.0,3.0,75,0.00,,---,0.00,VWS V14.00,2013-09-17 11:15:00,
2013-09-17 07:20:00,47.6,40.1,30.30,North,9,4.0,5.0,75,0.00,,---,0.00,VWS V14.00,2013-09-17 11:20:00,
2013-09-17 07:25:00,47.7,40.2,30.31,NNE,23,3.0,5.0,75,0.00,,---,0.00,VWS V14.00,2013-09-17 11:25:00,
2013-09-17 07:30:00,47.9,40.4,30.31,NNE,20,2.0,6.0,75,0.00,,---,0.00,VWS V14.00,2013-09-17 11:30:00,
2013-09-17 07:35:00,48.1,40.6,30.31,NNE,15,3.0,5.0,75,0.00,,---,0.00,VWS V14.00,2013-09-17 11:35:00,
2013-09-17 07:40:00,48.4,40.5,30.31,NNE,25,4.0,5.0,74,0.00,,---,0.00,VWS V14.00,2013-09-17 11:40:00,
2013-09-17 07:46:00,48.7,40.8,30.31,NNE,22,5.0,6.0,74,0.00,,---,0.00,VWS V14.00,2013-09-17 11:46:00,
2013-09-17 07:51:00,48.8,40.5,30.31,NNE,25,8.0,8.0,73,0.00,,---,0.00,VWS V14.00,2013-09-17 11:51:00,
2013-09-17 07:56:00,49.1,40.8,30.31,NNE,25,4.0,8.0,73,0.00,,---,0.00,VWS V14.00,2013-09-17 11:56:00,
2013-09-17 08:01:00,49.4,41.1,30.32,NNE,16,7.0,8.0,73,0.00,,---,0.00,VWS V14.00,2013-09-17 12:01:00,
2013-09-17 08:06:00,49.6,41.0,30.32,NNW,332,4.0,9.0,72,0.00,,---,0.00,VWS V14.00,2013-09-17 12:06:00,
2013-09-17 08:11:00,49.9,40.9,30.32,NNE,22,5.0,8.0,71,0.00,,---,0.00,VWS V14.00,2013-09-17 12:11:00,
2013-09-17 08:16:00,50.3,41.3,30.32,NNE,25,6.0,8.0,71,0.00,,---,0.00,VWS V14.00,2013-09-17 12:16:00,
2013-09-17 08:21:00,50.5,41.1,30.33,NNE,25,3.0,8.0,70,0.00,,---,0.00,VWS V14.00,2013-09-17 12:21:00,
2013-09-17 08:26:00,50.8,41.4,30.33,NNW,330,2.0,11.0,70,0.00,,---,0.00,VWS V14.00,2013-09-17 12:26:00,
2013-09-17 08:31:00,51.1,41.3,30.33,NNE,30,3.0,7.0,69,0.00,,---,0.00,VWS V14.00,2013-09-17 12:31:00,
2013-09-17 08:36:00,51.6,41.0,30.33,NE,36,7.0,8.0,67,0.00,,---,0.00,VWS V14.00,2013-09-17 12:36:00,
2013-09-17 08:41:00,52.1,40.3,30.33,NE,36,5.0,11.0,64,0.00,,---,0.00,VWS V14.00,2013-09-17 12:41:00,
2013-09-17 08:46:00,52.4,39.4,30.33,NE,43,4.0,14.0,61,0.00,,---,0.00,VWS V14.00,2013-09-17 12:46:00,
2013-09-17 08:51:00,52.6,39.1,30.33,North,1,9.0,15.0,60,0.00,,---,0.00,VWS V14.00,2013-09-17 12:51:00,
2013-09-17 08:57:00,53.0,39.5,30.33,North,11,2.0,8.0,60,0.00,,---,0.00,VWS V14.00,2013-09-17 12:57:00,
2013-09-17 09:02:00,53.1,39.2,30.33,North,10,7.0,11.0,59,0.00,,---,0.00,VWS V14.00,2013-09-17 13:02:00,
2013-09-17 09:07:00,52.7,38.8,30.33,NNE,32,11.0,17.0,59,0.00,,---,0.00,VWS V14.00,2013-09-17 13:07:00,
2013-09-17 09:12:00,53.0,39.1,30.33,NNE,13,4.0,13.0,59,0.00,,---,0.00,VWS V14.00,2013-09-17 13:12:00,
2013-09-17 09:17:00,53.4,39.0,30.33,NNE,15,12.0,12.0,58,0.00,,---,0.00,VWS V14.00,2013-09-17 13:17:00,
2013-09-17 09:22:00,53.7,38.8,30.33,NNW,338,9.0,11.0,57,0.00,,---,0.00,VWS V14.00,2013-09-17 13:22:00,
2013-09-17 09:27:00,54.0,39.1,30.33,NNE,24,9.0,12.0,57,0.00,,---,0.00,VWS V14.00,2013-09-17 13:27:00,
2013-09-17 09:32:00,54.0,39.1,30.34,NE,56,3.0,11.0,57,0.00,,---,0.00,VWS V14.00,2013-09-17 13:32:00,
2013-09-17 09:37:00,54.1,38.8,30.34,NNE,12,7.0,14.0,56,0.00,,---,0.00,VWS V14.00,2013-09-17 13:37:00,
2013-09-17 09:42:00,54.3,39.0,30.34,North,351,9.0,11.0,56,0.00,,---,0.00,VWS V14.00,2013-09-17 13:42:00,
2013-09-17 09:47:00,54.9,39.0,30.34,NE,42,9.0,13.0,55,0.00,,---,0.00,VWS V14.00,2013-09-17 13:47:00,
2013-09-17 09:52:00,54.9,39.0,30.34,East,100,9.0,13.0,55,0.00,,---,0.00,VWS V14.00,2013-09-17 13:52:00,
2013-09-17 09:57:00,54.7,38.9,30.34,NE,56,11.0,20.0,55,0.00,,---,0.00,VWS V14.00,2013-09-17 13:57:00,
2013-09-17 10:03:00,54.4,38.1,30.34,East,94,7.0,15.0,54,0.00,,---,0.00,VWS V14.00,2013-09-17 14:03:00,
2013-09-17 10:08:00,55.0,38.7,30.35,NNE,13,4.0,11.0,54,0.00,,---,0.00,VWS V14.00,2013-09-17 14:08:00,
2013-09-17 10:13:00,55.2,38.9,30.34,NNE,27,6.0,14.0,54,0.00,,---,0.00,VWS V14.00,2013-09-17 14:13:00,
2013-09-17 10:18:00,55.6,39.2,30.34,NE,51,5.0,10.0,54,0.00,,---,0.00,VWS V14.00,2013-09-17 14:18:00,
2013-09-17 10:23:00,55.4,38.6,30.35,NE,55,10.0,19.0,53,0.00,,---,0.00,VWS V14.00,2013-09-17 14:23:00,
2013-09-17 10:28:00,55.4,38.6,30.35,North,5,5.0,14.0,53,0.00,,---,0.00,VWS V14.00,2013-09-17 14:28:00,
2013-09-17 10:33:00,55.7,38.8,30.35,NE,41,8.0,12.0,53,0.00,,---,0.00,VWS V14.00,2013-09-17 14:33:00,
2013-09-17 10:38:00,55.9,39.0,30.35,NE,43,11.0,11.0,53,0.00,,---,0.00,VWS V14.00,2013-09-17 14:38:00,
2013-09-17 10:43:00,55.7,39.3,30.35,NNE,26,5.0,5.0,54,0.00,,---,0.00,VWS V14.00,2013-09-17 14:43:00,
2013-09-17 10:48:00,56.7,39.8,30.35,ENE,65,3.0,4.0,53,0.00,,---,0.00,VWS V14.00,2013-09-17 14:48:00,
2013-09-17 10:53:00,57.1,39.7,30.34,NE,56,8.0,8.0,52,0.00,,---,0.00,VWS V14.00,2013-09-17 14:53:00,
2013-09-17 10:58:00,56.8,38.4,30.34,NNW,345,8.0,12.0,50,0.00,,---,0.00,VWS V14.00,2013-09-17 14:58:00,
2013-09-17 11:03:00,56.7,38.8,30.35,West,273,4.0,9.0,51,0.00,,---,0.00,VWS V14.00,2013-09-17 15:03:00,
2013-09-17 11:08:00,57.4,38.9,30.34,NE,53,6.0,7.0,50,0.00,,---,0.00,VWS V14.00,2013-09-17 15:08:00,
2013-09-17 11:13:00,57.3,38.8,30.34,NE,44,5.0,7.0,50,0.00,,---,0.00,VWS V14.00,2013-09-17 15:13:00,
2013-09-17 11:18:00,57.7,38.7,30.34,NW,310,2.0,3.0,49,0.00,,---,0.00,VWS V14.00,2013-09-17 15:18:00,
2013-09-17 11:23:00,57.9,38.9,30.34,NW,319,7.0,9.0,49,0.00,,---,0.00,VWS V14.00,2013-09-17 15:23:00,
2013-09-17 11:28:00,57.8,39.3,30.34,NE,38,1.0,4.0,50,0.00,,---,0.00,VWS V14.00,2013-09-17 15:28:00,
2013-09-17 11:33:00,57.9,39.4,30.34,NE,53,5.0,5.0,50,0.00,,---,0.00,VWS V14.00,2013-09-17 15:33:00,
2013-09-17 11:39:00,58.0,39.5,30.34,NE,50,4.0,11.0,50,0.00,,---,0.00,VWS V14.00,2013-09-17 15:39:00,
2013-09-17 11:44:00,58.1,39.1,30.34,North,4,12.0,12.0,49,0.00,,---,0.00,VWS V14.00,2013-09-17 15:44:00,
2013-09-17 11:49:00,58.0,38.4,30.33,NNE,18,7.0,15.0,48,0.00,,---,0.00,VWS V14.00,2013-09-17 15:49:00,
2013-09-17 11:54:00,58.6,39.5,30.33,ESE,104,6.0,9.0,49,0.00,,---,0.00,VWS V14.00,2013-09-17 15:54:00,
2013-09-17 11:59:00,58.8,39.2,30.33,NW,321,10.0,11.0,48,0.00,,---,0.00,VWS V14.00,2013-09-17 15:59:00,
2013-09-17 12:04:00,58.7,39.6,30.33,NE,51,6.0,8.0,49,0.00,,---,0.00,VWS V14.00,2013-09-17 16:04:00,
2013-09-17 12:09:00,58.7,40.1,30.33,East,79,2.0,3.0,50,0.00,,---,0.00,VWS V14.00,2013-09-17 16:09:00,
2013-09-17 12:14:00,58.9,39.8,30.33,East,88,0.0,3.0,49,0.00,,---,0.00,VWS V14.00,2013-09-17 16:14:00,
2013-09-17 12:19:00,59.3,40.2,30.33,ESE,115,8.0,12.0,49,0.00,,---,0.00,VWS V14.00,2013-09-17 16:19:00,
2013-09-17 12:24:00,60.1,40.4,30.33,ENE,69,6.0,7.0,48,0.00,,---,0.00,VWS V14.00,2013-09-17 16:24:00,
2013-09-17 12:29:00,60.5,40.7,30.32,NNE,12,7.0,7.0,48,0.00,,---,0.00,VWS V14.00,2013-09-17 16:29:00,
2013-09-17 12:34:00,60.1,39.8,30.32,NW,326,6.0,11.0,47,0.00,,---,0.00,VWS V14.00,2013-09-17 16:34:00,
2013-09-17 12:39:00,60.4,40.1,30.32,NW,316,3.0,8.0,47,0.00,,---,0.00,VWS V14.00,2013-09-17 16:39:00,
2013-09-17 12:44:00,60.8,39.3,30.32,ESE,116,3.0,7.0,45,0.00,,---,0.00,VWS V14.00,2013-09-17 16:44:00,
2013-09-17 12:50:00,60.7,40.4,30.32,NE,40,6.0,6.0,47,0.00,,---,0.00,VWS V14.00,2013-09-17 16:50:00,
2013-09-17 12:55:00,60.7,40.4,30.32,NNE,13,0.0,5.0,47,0.00,,---,0.00,VWS V14.00,2013-09-17 16:55:00,
2013-09-17 13:00:00,60.8,41.0,30.31,ESE,105,6.0,8.0,48,0.00,,---,0.00,VWS V14.00,2013-09-17 17:00:00,
2013-09-17 13:05:00,60.9,41.1,30.31,ESE,103,7.0,10.0,48,0.00,,---,0.00,VWS V14.00,2013-09-17 17:05:00,
2013-09-17 13:10:00,61.3,41.5,30.31,SSE,158,3.0,7.0,48,0.00,,---,0.00,VWS V14.00,2013-09-17 17:10:00,
2013-09-17 13:15:00,61.6,41.2,30.31,ENE,69,8.0,9.0,47,0.00,,---,0.00,VWS V14.00,2013-09-17 17:15:00,
2013-09-17 13:20:00,61.0,41.2,30.31,ENE,69,4.0,10.0,48,0.00,,---,0.00,VWS V14.00,2013-09-17 17:20:00,
2013-09-17 13:25:00,61.4,40.5,30.31,SW,231,0.0,7.0,46,0.00,,---,0.00,VWS V14.00,2013-09-17 17:25:00,
2013-09-17 13:30:00,61.7,41.3,30.30,East,84,2.0,6.0,47,0.00,,---,0.00,VWS V14.00,2013-09-17 17:30:00,
2013-09-17 13:35:00,62.2,41.2,30.30,NNE,13,3.0,9.0,46,0.00,,---,0.00,VWS V14.00,2013-09-17 17:35:00,
2013-09-17 13:40:00,62.4,41.9,30.30,NNE,25,4.0,7.0,47,0.00,,---,0.00,VWS V14.00,2013-09-17 17:40:00,
2013-09-17 13:46:00,62.0,41.0,30.30,NW,319,2.0,7.0,46,0.00,,---,0.00,VWS V14.00,2013-09-17 17:46:00,
2013-09-17 13:51:00,62.3,41.3,30.30,SE,143,2.0,4.0,46,0.00,,---,0.00,VWS V14.00,2013-09-17 17:51:00,
2013-09-17 13:56:00,62.6,41.0,30.30,NNW,348,8.0,9.0,45,0.00,,---,0.00,VWS V14.00,2013-09-17 17:56:00,
2013-09-17 14:01:00,62.6,41.5,30.30,NE,45,4.0,13.0,46,0.00,,---,0.00,VWS V14.00,2013-09-17 18:01:00,
2013-09-17 14:06:00,62.8,41.2,30.29,NNW,330,3.0,5.0,45,0.00,,---,0.00,VWS V14.00,2013-09-17 18:06:00,
2013-09-17 14:11:00,63.0,41.3,30.29,NNW,340,6.0,8.0,45,0.00,,---,0.00,VWS V14.00,2013-09-17 18:11:00,
2013-09-17 14:16:00,63.5,41.2,30.29,NNW,330,4.0,6.0,44,0.00,,---,0.00,VWS V14.00,2013-09-17 18:16:00,
2013-09-17 14:21:00,63.5,41.2,30.29,NNW,347,4.0,9.0,44,0.00,,---,0.00,VWS V14.00,2013-09-17 18:21:00,
2013-09-17 14:26:00,63.7,42.0,30.29,NE,37,5.0,6.0,45,0.00,,---,0.00,VWS V14.00,2013-09-17 18:26:00,
2013-09-17 14:31:00,63.5,41.8,30.28,NE,43,2.0,9.0,45,0.00,,---,0.00,VWS V14.00,2013-09-17 18:31:00,
2013-09-17 14:36:00,63.9,42.2,30.28,NW,316,2.0,6.0,45,0.00,,---,0.00,VWS V14.00,2013-09-17 18:36:00,
2013-09-17 14:41:00,63.9,41.6,30.28,North,8,6.0,9.0,44,0.00,,---,0.00,VWS V14.00,2013-09-17 18:41:00,
2013-09-17 14:46:00,63.5,41.2,30.28,WNW,290,5.0,6.0,44,0.00,,---,0.00,VWS V14.00,2013-09-17 18:46:00,
2013-09-17 14:51:00,63.8,41.5,30.28,NNE,15,3.0,6.0,44,0.00,,---,0.00,VWS V14.00,2013-09-17 18:51:00,
2013-09-17 14:56:00,63.5,40.6,30.28,SE,130,2.0,12.0,43,0.00,,---,0.00,VWS V14.00,2013-09-17 18:56:00,
2013-09-17 15:01:00,63.4,41.1,30.27,East,98,3.0,9.0,44,0.00,,---,0.00,VWS V14.00,2013-09-17 19:01:00,
2013-09-17 15:06:00,63.9,42.2,30.28,East,98,4.0,6.0,45,0.00,,---,0.00,VWS V14.00,2013-09-17 19:06:00,
2013-09-17 15:12:00,64.3,40.7,30.27,ENE,65,7.0,7.0,42,0.00,,---,0.00,VWS V14.00,2013-09-17 19:12:00,
2013-09-17 15:17:00,64.1,40.6,30.27,NE,53,1.0,7.0,42,0.00,,---,0.00,VWS V14.00,2013-09-17 19:17:00,
2013-09-17 15:22:00,64.1,41.2,30.27,East,83,2.0,8.0,43,0.00,,---,0.00,VWS V14.00,2013-09-17 19:22:00,
2013-09-17 15:27:00,64.2,41.8,30.27,ENE,58,3.0,7.0,44,0.00,,---,0.00,VWS V14.00,2013-09-17 19:27:00,
2013-09-17 15:32:00,64.0,41.1,30.27,NE,55,5.0,10.0,43,0.00,,---,0.00,VWS V14.00,2013-09-17 19:32:00,
2013-09-17 15:37:00,64.0,40.5,30.26,ESE,119,3.0,8.0,42,0.00,,---,0.00,VWS V14.00,2013-09-17 19:37:00,
2013-09-17 15:42:00,64.5,41.5,30.26,North,359,11.0,11.0,43,0.00,,---,0.00,VWS V14.00,2013-09-17 19:42:00,
2013-09-17 15:47:00,64.2,41.8,30.26,NE,34,4.0,9.0,44,0.00,,---,0.00,VWS V14.00,2013-09-17 19:47:00,
2013-09-17 15:52:00,64.4,42.0,30.26,ENE,63,4.0,6.0,44,0.00,,---,0.00,VWS V14.00,2013-09-17 19:52:00,
2013-09-17 15:57:00,64.9,41.3,30.26,NE,53,3.0,5.0,42,0.00,,---,0.00,VWS V14.00,2013-09-17 19:57:00,
2013-09-17 16:02:00,64.9,40.7,30.26,ENE,67,2.0,6.0,41,0.00,,---,0.00,VWS V14.00,2013-09-17 20:02:00,
2013-09-17 16:07:00,64.3,40.7,30.26,NNE,15,8.0,13.0,42,0.00,,---,0.00,VWS V14.00,2013-09-17 20:07:00,
2013-09-17 16:12:00,64.3,41.3,30.26,NE,42,3.0,10.0,43,0.00,,---,0.00,VWS V14.00,2013-09-17 20:12:00,
2013-09-17 16:18:00,64.6,41.6,30.26,ESE,109,3.0,8.0,43,0.00,,---,0.00,VWS V14.00,2013-09-17 20:18:00,
2013-09-17 16:23:00,64.6,41.6,30.26,ENE,72,5.0,6.0,43,0.00,,---,0.00,VWS V14.00,2013-09-17 20:23:00,
2013-09-17 16:28:00,64.6,41.6,30.26,East,88,1.0,4.0,43,0.00,,---,0.00,VWS V14.00,2013-09-17 20:28:00,
2013-09-17 16:33:00,65.1,42.1,30.26,ENE,76,3.0,4.0,43,0.00,,---,0.00,VWS V14.00,2013-09-17 20:33:00,
2013-09-17 16:38:00,65.0,42.0,30.25,NNE,17,6.0,9.0,43,0.00,,---,0.00,VWS V14.00,2013-09-17 20:38:00,
2013-09-17 16:43:00,65.0,42.0,30.25,NNW,331,1.0,6.0,43,0.00,,---,0.00,VWS V14.00,2013-09-17 20:43:00,
2013-09-17 16:48:00,64.9,41.9,30.25,East,87,4.0,7.0,43,0.00,,---,0.00,VWS V14.00,2013-09-17 20:48:00,
2013-09-17 16:53:00,64.8,42.4,30.25,East,81,6.0,6.0,44,0.00,,---,0.00,VWS V14.00,2013-09-17 20:53:00,
2013-09-17 16:58:00,64.4,41.4,30.25,NE,43,3.0,6.0,43,0.00,,---,0.00,VWS V14.00,2013-09-17 20:58:00,
2013-09-17 17:03:00,64.7,42.3,30.25,ESE,110,2.0,6.0,44,0.00,,---,0.00,VWS V14.00,2013-09-17 21:03:00,
2013-09-17 17:08:00,64.7,42.3,30.25,ESE,114,2.0,6.0,44,0.00,,---,0.00,VWS V14.00,2013-09-17 21:08:00,
2013-09-17 17:13:00,64.7,42.3,30.25,NE,53,0.0,7.0,44,0.00,,---,0.00,VWS V14.00,2013-09-17 21:13:00,
2013-09-17 17:18:00,65.1,42.1,30.25,NE,47,3.0,6.0,43,0.00,,---,0.00,VWS V14.00,2013-09-17 21:18:00,
2013-09-17 17:23:00,65.0,42.0,30.25,ENE,76,2.0,6.0,43,0.00,,---,0.00,VWS V14.00,2013-09-17 21:23:00,
2013-09-17 17:28:00,64.9,42.5,30.25,ENE,63,3.0,5.0,44,0.00,,---,0.00,VWS V14.00,2013-09-17 21:28:00,
2013-09-17 17:33:00,64.5,42.1,30.25,NNW,330,1.0,6.0,44,0.00,,---,0.00,VWS V14.00,2013-09-17 21:33:00,
2013-09-17 17:38:00,65.0,42.6,30.25,NE,36,3.0,4.0,44,0.00,,---,0.00,VWS V14.00,2013-09-17 21:38:00,
2013-09-17 17:43:00,64.7,42.3,30.25,NE,43,4.0,9.0,44,0.00,,---,0.00,VWS V14.00,2013-09-17 21:43:00,
2013-09-17 17:48:00,64.5,42.7,30.25,NNE,29,1.0,5.0,45,0.00,,---,0.00,VWS V14.00,2013-09-17 21:48:00,
2013-09-17 17:53:00,64.3,41.9,30.25,NE,40,2.0,5.0,44,0.00,,---,0.00,VWS V14.00,2013-09-17 21:53:00,
2013-09-17 17:58:00,64.6,43.4,30.25,NNE,30,4.0,6.0,46,0.00,,---,0.00,VWS V14.00,2013-09-17 21:58:00,
2013-09-17 18:03:00,64.1,41.8,30.25,NNE,29,2.0,7.0,44,0.00,,---,0.00,VWS V14.00,2013-09-17 22:03:00,
2013-09-17 18:08:00,64.1,41.8,30.25,East,94,1.0,1.0,44,0.00,,---,0.00,VWS V14.00,2013-09-17 22:08:00,
2013-09-17 18:13:00,64.1,41.8,30.25,ENE,76,1.0,2.0,44,0.00,,---,0.00,VWS V14.00,2013-09-17 22:13:00,
2013-09-17 18:18:00,63.9,42.2,30.24,NE,48,1.0,2.0,45,0.00,,---,0.00,VWS V14.00,2013-09-17 22:18:00,
2013-09-17 18:23:00,63.8,42.1,30.25,ENE,58,1.0,2.0,45,0.00,,---,0.00,VWS V14.00,2013-09-17 22:23:00,
2013-09-17 18:28:00,63.6,42.5,30.24,ENE,62,2.0,2.0,46,0.00,,---,0.00,VWS V14.00,2013-09-17 22:28:00,
2013-09-17 18:33:00,63.5,42.9,30.24,ENE,62,0.0,0.0,47,0.00,,---,0.00,VWS V14.00,2013-09-17 22:33:00,
2013-09-17 18:38:00,63.5,42.9,30.24,ENE,61,0.0,0.0,47,0.00,,---,0.00,VWS V14.00,2013-09-17 22:38:00,
2013-09-17 18:44:00,62.9,42.9,30.24,NE,51,1.0,2.0,48,0.00,,---,0.00,VWS V14.00,2013-09-17 22:44:00,
2013-09-17 18:49:00,62.3,43.4,30.24,NE,53,0.0,0.0,50,0.00,,---,0.00,VWS V14.00,2013-09-17 22:49:00,
2013-09-17 18:54:00,61.8,44.0,30.24,NE,53,0.0,0.0,52,0.00,,---,0.00,VWS V14.00,2013-09-17 22:54:00,
2013-09-17 18:59:00,61.4,44.1,30.24,NE,51,0.0,0.0,53,0.00,,---,0.00,VWS V14.00,2013-09-17 22:59:00,
2013-09-17 19:04:00,61.1,44.3,30.24,NE,51,0.0,0.0,54,0.00,,---,0.00,VWS V14.00,2013-09-17 23:04:00,
2013-09-17 19:09:00,60.6,44.4,30.24,NE,51,0.0,0.0,55,0.00,,---,0.00,VWS V14.00,2013-09-17 23:09:00,
2013-09-17 19:14:00,60.1,44.4,30.24,NE,51,0.0,0.0,56,0.00,,---,0.00,VWS V14.00,2013-09-17 23:14:00,
2013-09-17 19:19:00,59.5,44.7,30.24,NE,51,0.0,0.0,58,0.00,,---,0.00,VWS V14.00,2013-09-17 23:19:00,
2013-09-17 19:24:00,59.0,44.7,30.24,NE,51,0.0,0.0,59,0.00,,---,0.00,VWS V14.00,2013-09-17 23:24:00,
2013-09-17 19:30:00,58.4,45.0,30.24,NE,51,0.0,0.0,61,0.00,,---,0.00,VWS V14.00,2013-09-17 23:30:00,
2013-09-17 19:35:00,57.9,45.0,30.24,NE,51,0.0,0.0,62,0.00,,---,0.00,VWS V14.00,2013-09-17 23:35:00,
2013-09-17 19:40:00,57.2,45.2,30.24,NE,51,0.0,0.0,64,0.00,,---,0.00,VWS V14.00,2013-09-17 23:40:00,
2013-09-17 19:45:00,56.6,45.0,30.24,NE,51,0.0,0.0,65,0.00,,---,0.00,VWS V14.00,2013-09-17 23:45:00,
2013-09-17 19:50:00,56.5,45.3,30.24,NE,51,0.0,0.0,66,0.00,,---,0.00,VWS V14.00,2013-09-17 23:50:00,
2013-09-17 19:55:00,56.6,45.8,30.24,NE,51,0.0,0.0,67,0.00,,---,0.00,VWS V14.00,2013-09-17 23:55:00,
2013-09-17 20:00:00,56.4,45.6,30.24,NE,51,0.0,0.0,67,0.00,,---,0.00,VWS V14.00,2013-09-18 00:00:00,
2013-09-17 20:05:00,56.1,45.7,30.25,NE,51,0.0,0.0,68,0.00,,---,0.00,VWS V14.00,2013-09-18 00:05:00,
2013-09-17 20:11:00,55.7,45.3,30.25,NE,51,0.0,0.0,68,0.00,,---,0.00,VWS V14.00,2013-09-18 00:11:00,
2013-09-17 20:16:00,55.2,45.2,30.25,NE,51,0.0,0.0,69,0.00,,---,0.00,VWS V14.00,2013-09-18 00:16:00,
2013-09-17 20:21:00,55.3,45.7,30.25,NE,51,0.0,1.0,70,0.00,,---,0.00,VWS V14.00,2013-09-18 00:21:00,
2013-09-17 20:26:00,55.2,46.0,30.25,NE,51,0.0,0.0,71,0.00,,---,0.00,VWS V14.00,2013-09-18 00:26:00,
2013-09-17 20:31:00,55.3,46.1,30.25,NE,49,1.0,2.0,71,0.00,,---,0.00,VWS V14.00,2013-09-18 00:31:00,
2013-09-17 20:36:00,55.4,46.2,30.25,NE,36,2.0,3.0,71,0.00,,---,0.00,VWS V14.00,2013-09-18 00:36:00,
2013-09-17 20:41:00,55.5,45.9,30.25,NNE,27,1.0,3.0,70,0.00,,---,0.00,VWS V14.00,2013-09-18 00:41:00,
2013-09-17 20:46:00,55.4,46.2,30.25,NNE,29,1.0,2.0,71,0.00,,---,0.00,VWS V14.00,2013-09-18 00:46:00,
2013-09-17 20:52:00,55.3,46.4,30.25,NNE,29,2.0,2.0,72,0.00,,---,0.00,VWS V14.00,2013-09-18 00:52:00,
2013-09-17 20:57:00,55.1,46.2,30.25,NNE,29,2.0,2.0,72,0.00,,---,0.00,VWS V14.00,2013-09-18 00:57:00,
2013-09-17 21:02:00,54.9,46.4,30.25,NNE,30,0.0,2.0,73,0.00,,---,0.00,VWS V14.00,2013-09-18 01:02:00,
2013-09-17 21:07:00,54.5,46.4,30.25,NNE,30,0.0,2.0,74,0.00,,---,0.00,VWS V14.00,2013-09-18 01:07:00,
2013-09-17 21:12:00,54.3,46.6,30.25,NNE,30,0.0,1.0,75,0.00,,---,0.00,VWS V14.00,2013-09-18 01:12:00,
2013-09-17 21:17:00,54.0,46.6,30.25,NNE,29,0.0,0.0,76,0.00,,---,0.00,VWS V14.00,2013-09-18 01:17:00,
2013-09-17 21:22:00,53.6,46.6,30.26,NNE,29,0.0,0.0,77,0.00,,---,0.00,VWS V14.00,2013-09-18 01:22:00,
2013-09-17 21:27:00,53.4,46.7,30.26,NNE,29,0.0,0.0,78,0.00,,---,0.00,VWS V14.00,2013-09-18 01:27:00,
2013-09-17 21:32:00,53.1,46.8,30.25,NNE,29,0.0,0.0,79,0.00,,---,0.00,VWS V14.00,2013-09-18 01:32:00,
2013-09-17 21:38:00,52.7,46.4,30.25,NNE,29,0.0,0.0,79,0.00,,---,0.00,VWS V14.00,2013-09-18 01:38:00,
2013-09-17 21:43:00,52.5,46.5,30.25,NNE,23,0.0,0.0,80,0.00,,---,0.00,VWS V14.00,2013-09-18 01:43:00,
2013-09-17 21:48:00,52.4,46.8,30.26,SW,223,1.0,1.0,81,0.00,,---,0.00,VWS V14.00,2013-09-18 01:48:00,
2013-09-17 21:53:00,52.4,46.8,30.25,WNW,300,3.0,3.0,81,0.00,,---,0.00,VWS V14.00,2013-09-18 01:53:00,
2013-09-17 21:58:00,52.5,46.5,30.25,NNW,340,2.0,3.0,80,0.00,,---,0.00,VWS V14.00,2013-09-18 01:58:00,
2013-09-17 22:03:00,52.6,46.6,30.25,North,356,1.0,2.0,80,0.00,,---,0.00,VWS V14.00,2013-09-18 02:03:00,
2013-09-17 22:08:00,52.5,46.8,30.26,NNW,342,2.0,2.0,81,0.00,,---,0.00,VWS V14.00,2013-09-18 02:08:00,
2013-09-17 22:13:00,52.5,46.8,30.25,NW,315,1.0,2.0,81,0.00,,---,0.00,VWS V14.00,2013-09-18 02:13:00,
2013-09-17 22:18:00,52.5,46.8,30.25,NNE,16,1.0,2.0,81,0.00,,---,0.00,VWS V14.00,2013-09-18 02:18:00,
2013-09-17 22:23:00,52.4,46.8,30.25,North,10,0.0,2.0,81,0.00,,---,0.00,VWS V14.00,2013-09-18 02:23:00,
2013-09-17 22:28:00,52.2,46.5,30.25,NNW,338,0.0,1.0,81,0.00,,---,0.00,VWS V14.00,2013-09-18 02:28:00,
2013-09-17 22:33:00,52.0,46.7,30.25,NNW,338,0.0,1.0,82,0.00,,---,0.00,VWS V14.00,2013-09-18 02:33:00,
2013-09-17 22:38:00,51.9,46.6,30.26,North,5,0.0,0.0,82,0.00,,---,0.00,VWS V14.00,2013-09-18 02:38:00,
2013-09-17 22:43:00,51.7,46.7,30.26,WNW,293,1.0,1.0,83,0.00,,---,0.00,VWS V14.00,2013-09-18 02:43:00,
2013-09-17 22:48:00,51.6,46.6,30.26,North,11,1.0,2.0,83,0.00,,---,0.00,VWS V14.00,2013-09-18 02:48:00,
2013-09-17 22:53:00,51.6,46.6,30.26,North,11,0.0,1.0,83,0.00,,---,0.00,VWS V14.00,2013-09-18 02:53:00,
2013-09-17 22:58:00,51.5,46.5,30.26,North,10,0.0,0.0,83,0.00,,---,0.00,VWS V14.00,2013-09-18 02:58:00,
2013-09-17 23:03:00,51.3,46.3,30.26,North,11,0.0,0.0,83,0.00,,---,0.00,VWS V14.00,2013-09-18 03:03:00,
2013-09-17 23:08:00,51.1,46.4,30.26,North,10,0.0,0.0,84,0.00,,---,0.00,VWS V14.00,2013-09-18 03:08:00,
2013-09-17 23:13:00,50.9,46.2,30.26,WNW,293,0.0,0.0,84,0.00,,---,0.00,VWS V14.00,2013-09-18 03:13:00,
2013-09-17 23:18:00,51.0,46.3,30.26,WNW,294,0.0,0.0,84,0.00,,---,0.00,VWS V14.00,2013-09-18 03:18:00,
2013-09-17 23:23:00,50.8,46.2,30.26,WNW,300,0.0,0.0,84,0.00,,---,0.00,VWS V14.00,2013-09-18 03:23:00,
2013-09-17 23:28:00,50.6,46.3,30.26,WNW,300,0.0,0.0,85,0.00,,---,0.00,VWS V14.00,2013-09-18 03:28:00,
2013-09-17 23:33:00,50.3,46.0,30.25,NNW,330,0.0,0.0,85,0.00,,---,0.00,VWS V14.00,2013-09-18 03:33:00,
2013-09-17 23:38:00,50.1,45.8,30.26,NNW,329,0.0,0.0,85,0.00,,---,0.00,VWS V14.00,2013-09-18 03:38:00,
2013-09-17 23:43:00,50.0,46.0,30.26,NNW,331,0.0,0.0,86,0.00,,---,0.00,VWS V14.00,2013-09-18 03:43:00,
2013-09-17 23:49:00,49.9,45.9,30.25,North,357,0.0,0.0,86,0.00,,---,0.00,VWS V14.00,2013-09-18 03:49:00,
2013-09-17 23:54:00,50.0,46.0,30.26,North,358,0.0,0.0,86,0.00,,---,0.00,VWS V14.00,2013-09-18 03:54:00,
2013-09-17 23:59:00,50.0,46.0,30.26,North,357,0.0,0.0,86,0.00,,---,0.00,VWS V14.00,2013-09-18 03:59:00,